Regional Weather Roundup
Issued by NWS

Home | Current Version | Previous Version | Text Only | Print | Product List | Glossary On
Versions: 1 2 3 4 5 6 7 8 9 10 11 12 13 14 15 16 17 18 19 20 21 22 23 24 25 26 27 28 29 30 31 32 33 34 35 36 37 38 39 40 41 42 43 44 45 46 47 48 49 50
000
ASUS43 KTOP 161408
RWRKS

WEATHER ROUNDUP FOR KANSAS
NATIONAL WEATHER SERVICE GOODLAND KS
800 AM CST MON JAN 16 2017

NOTE:  "FAIR" INDICATES FEW OR NO CLOUDS BELOW 12,000 FEET WITH NO
SIGNIFICANT WEATHER AND/OR OBSTRUCTIONS TO VISIBILITY.

KSZ001>006-013>018-027>032-041>047-161500-
NORTHWEST KANSAS

CITY           SKY/WX    TMP DP  RH WIND       PRES   REMARKS
GOODLAND       FRZ RAIN  32  31  96 N17       29.87R WCI  21
HAYS           FLURRIES  32  31  96 N14       29.84S WCI  22
HILL CITY      FRZ RAIN  33  32  96 N8        29.89R FOG
RUSSELL        CLOUDY    32  31  96 N13       29.82F WCI  22
$$

KSZ061>065-074>080-084>089-161500-
SOUTHWEST KANSAS

CITY           SKY/WX    TMP DP  RH WIND       PRES   REMARKS
DODGE CITY     CLOUDY    31  30  96 N13G23    29.81R WCI  21
ELKHART          N/A     30  24  78 NW7         N/A
GARDEN CITY    LGT SNOW  31  29  92 N16       29.82R FOG     WCI  20
GREAT BEND     CLOUDY    32  31  96 N15       29.81F WCI  22
LIBERAL        CLOUDY    32  27  80 MISG      29.84R
PRATT          CLOUDY    30  29  98 CALM      29.82R
$$

KSZ066>073-081>083-090>101-161500-
SOUTHEAST KANSAS

CITY           SKY/WX    TMP DP  RH WIND       PRES   REMARKS
CHANUTE        CLOUDY    52  50  93 SE10      29.84R
HUTCHINSON     CLOUDY    33  32  96 VRB7      29.80R
MEDICINE LODGE   N/A     33  32  96 NW6       29.81R
NEWTON         LGT RAIN  38  38 100 E6        29.78R VSB 1/4
PARSONS        CLOUDY    55  53  93 S7        29.85R
WICHITA INTL   FOG       42  42 100 S9        29.78R VSB 1/2
WICHITA JABRA  CLOUDY    44  44 100 S13       29.78R
WICHITA MCCONL CLOUDY    43  43 100 S14       29.78R
WINFIELD       CLOUDY    40  40 100 S15       29.84R WCI  32
$$

KSZ007>012-019>026-033>040-048>060-102>105-161500-
NORTHEAST KANSAS

CITY           SKY/WX    TMP DP  RH WIND       PRES   REMARKS
CONCORDIA      FRZ RAIN  32  32 100 NE13      29.86S FOG     WCI  22
EMPORIA        LGT RAIN  43  43 100 E6        29.81S FOG
LAWRENCE       LGT RAIN  35  35 100 E10       29.88F WCI  27
MANHATTAN      CLOUDY    34  33  96 NE9       29.85S FOG
MARYSVILLE     LGT SNOW  32  32 100 NE7       29.88F
OLATHE IND     FOG       40  40 100 E12       29.86F VSB 3/4 WCI  33
OLATHE EXE     FOG       37  37 100 E10       29.87F VSB 1/2 WCI  30
SALINA         CLOUDY    34  32  92 N9        29.83F FOG
TOPEKA BILLARD MIX PCPN  37  34  89 E7        29.86F FOG
TOPEKA FORBES  LGT RAIN  38  36  92 E9        29.85F FOG
$$




USA.gov is the U.S. government's official web portal to all federal, state and local government web resources and services.